Location: Charbonni�res
(45.9952°N, 2.9982°E)
Time: 14:12:44
(UTC+00:00)

Cosmos 2263 Rocket - Visible Passes

Search period start: 20 April 2021 00:00
Search period end: 30 April 2021 00:00
Orbit: 825 x 847 km, 71.0° (Epoch: 19 April)

Date Brightness Start Highest point End Pass type
(mag) Time Alt. Az. Time Alt. Az. Time Alt. Az.
20 Apr 4.5 00:49:08 12° WNW 00:51:24 15° NW 00:54:38 10° N visible
20 Apr 4.2 21:08:52 13° ENE 21:08:52 13° ENE 21:09:50 10° ENE visible
20 Apr 2.5 22:50:30 62° N 22:50:30 62° N 22:55:14 10° NNE visible
21 Apr 4.4 00:32:09 13° WNW 00:34:33 16° NW 00:37:59 10° N visible
21 Apr 4.1 20:51:48 13° ENE 20:51:48 13° ENE 20:52:49 10° ENE visible
21 Apr 2.3 22:33:26 71° N 22:33:26 71° N 22:38:27 10° NNE visible
22 Apr 4.4 00:15:04 13° WNW 00:17:41 17° NW 00:21:19 10° N visible
22 Apr 4.1 20:34:38 12° ENE 20:34:38 12° ENE 20:35:45 10° ENE visible
22 Apr 2.1 22:16:15 84° N 22:16:15 84° N 22:21:40 10° NNE visible
22 Apr 4.4 23:57:53 13° W 00:00:49 18° NW 00:04:38 10° N visible
23 Apr 4.0 20:17:20 12° E 20:17:20 12° E 20:18:37 10° ENE visible
23 Apr 2.0 21:58:57 79° S 21:59:17 86° ESE 22:04:53 10° NNE visible
23 Apr 4.4 23:40:34 12° W 23:43:58 19° NW 23:47:57 10° N visible
24 Apr 4.0 19:59:51 11° E 19:59:51 11° E 20:01:21 10° ENE visible
24 Apr 2.0 21:41:27 59° S 21:42:31 80° ESE 21:48:06 10° NNE visible
24 Apr 4.3 23:23:03 10° W 23:27:07 21° NW 23:31:15 10° N visible
25 Apr 4.0 19:42:07 10° ESE 19:42:52 10° E 19:43:45 10° E visible
25 Apr 2.0 21:23:41 40° S 21:25:44 74° ESE 21:31:19 10° NNE visible
25 Apr 4.3 23:06:01 10° W 23:10:16 22° NW 23:14:33 10° N visible
26 Apr 2.0 21:05:30 23° S 21:08:58 68° ESE 21:14:32 10° NNE visible
26 Apr 4.3 22:49:02 10° W 22:53:26 23° NW 22:57:51 10° N visible
27 Apr 2.1 20:46:44 10° S 20:52:12 63° ESE 20:57:44 10° NNE visible
27 Apr 4.2 22:32:05 10° WSW 22:36:35 25° NW 22:41:08 10° N visible
28 Apr 5.3 03:55:42 10° NNE 03:57:28 11° NE 03:59:14 10° NE visible
28 Apr 2.2 20:30:01 10° S 20:35:27 58° ESE 20:40:56 10° NNE visible
28 Apr 4.1 22:15:07 10° WSW 22:19:45 26° NW 22:24:26 10° N visible
29 Apr 5.5 03:39:18 10° NNE 03:40:35 11° NNE 03:41:52 10° NE visible
29 Apr 2.3 20:13:19 10° S 20:18:42 53° ESE 20:24:07 10° NE visible
29 Apr 4.1 21:58:11 10° WSW 22:02:55 28° NW 22:07:43 10° N visible
